Погода в Дзарджане

Погода в Дзарджане : погода сейчас, прогноз погоды и архив. Всё, что Вы хотите узнать о погоде в Дзарджане!

Поиск расширенной информации на нашем сайте:

Другие новости

Новости СМИ2

Главная страница сайта

Новости сайта

03.07.2017

Напоминаем, что на нашем специализированном сайте Метеоцентр.Азия вы можете получить высокодетализированные автоматические прогнозы погоды по пунктам России, СНГ и мира в авиационном формате (включающие направление и скорость ветра, видимость, явления погоды, количество и форму облачности, нижнюю и верхнюю границу облачности).


Погода в Дзарджане - сегодня

Время (UTC), дата Ветер
(°,м/с) 
Видим.   Явления Облачность Т
(°С)
Тd
(°С)
f(%) Тe
(°С)
Pmin
(гПа)
dP
(гПа)
Po
(мм)
O2
(г/м3)
Тmin Tmax R s Состояние
почвы
03 18.05.18 360 (С) 20000 м    ясно 
-1.9 -8.9 59 -4  1012  -1  755  307           
06 18.05.18 360 (С) 20000 м    ясно 
+0.2 -7.8 55 -2  1011.5  -0.5  755  305           
09 18.05.18 360 (С) 20000 м    ясно 
+1.7 -7.3 51 1011.2  -0.3  755  303           
12 18.05.18 360 (С) 20000 м    ясно 
+0.6 -8.5 50 -1  1011  -0.2  755  304    +2.1       
15 18.05.18 360 (С) 20000 м    ясно 
-2.4 -8.4 63 -3  1010.7  -0.3  754  308           
21 18.05.18 020 (С) 20000 м    ясно 
-4.3 -8.1 75 -6  1009.6  -0.7  754  309           
00 19.05.18 020 (С) 20000 м    ясно 
-1 -7.1 63 -3  1008.1  -0.6  753  305  -5.1      мокрый или
старый снег
50-90% 
03 19.05.18 050 (СВ) 20000 м    3/0 верхняя 
[Ci fib]
+2.2 -5.4 57 1007.4  -1.5  752  301           
06 19.05.18 050 (СВ) 20000 м    10/0 верхняя 
[Ci fib]
+4.5 -5.6 48 +2  1006.2  -1.1  751  298           
09 19.05.18 050 (СВ) 20000 м    10/0 верхняя 
[Ci fib]
+4.2 -5.2 50 +4  1006.4  0.2  751  299           
12 19.05.18 050 (СВ) 20000 м    10/0 средняя 
[As op]
+3 -5.4 54 +2  1007.4  752  300    +4.5       
15 19.05.18 050 (СВ) 20000 м    10/0 средняя 
[As op]
+0.8 -5.3 64 1007.5  752  303           
18 19.05.18 050 (СВ) 20000 м    10/0 средняя 
[As op]
-0.6 -4.4 75 1008  0.5  752  304           
21 19.05.18 050 (СВ) 20000 м    10/0 средняя 
[Ac und]
-1.9 -5.7 75 -3  1008.6  0.6  753  306           
00 20.05.18 360 (С) 20000 м    10/0 средняя 
[Ac und]
-2.8 -5.8 80 -5  1009.1  0.5  753  307  -2.8      мокрый или
старый снег
50-90% 
03 20.05.18 360 (С) 20000 м    10/0 средняя 
[As op]
-0.9 -5.9 69 -4  1009.7  0.6  754  305           
06 20.05.18 360 (С) 20000 м    10/0 средняя 
[Ac und]
+1 -5.4 62 -2  1010.8  754  303           
09 20.05.18 360 (С) 20000 м    10/0 средняя 
[As op]
+1.2 -5.4 61 1012.8  756  304           
12 20.05.18 360 (С) 20000 м    10/0 средняя 
[As op]
+0.1 -5.9 64 -1  1014.8  757  306    +1.6       
15 20.05.18 360 (С) 20000 м    10/0 средняя 
[As op]
-1.6 -5 78 -3  1016.5  1.7  759  308           
18 20.05.18 360 (С) 20000 м    10/0 средняя 
[Ac und]
-2.4 -6 76 -3  1018.4  1.9  760  310           
21 20.05.18 360 (С) 20000 м    10/0 средняя 
[Ac und]
-2.6 -6.3 76 -2  1019.4  761  310           
00 21.05.18 360 (С) 20000 м    10/0 средняя 
[Ac und]
-1.8 -5.2 78 -1  1020.2  0.8  761  309  -2.6      мокрый или
старый снег
50-90% 
03 21.05.18 360 (С) 20000 м    10/0 средняя 
[Ac und]
-0.6 -5.4 70 1019.9  -0.3  761  308           
06 21.05.18 180 (Ю) 20000 м    ясно 
+3.2 -5.1 54 +4  1018.3  -1.5  760  303           
Время (UTC), дата Ветер
(°,м/с) 
Видим.   Явления Облачность Т
(°С)
Тd
(°С)
f(%) Тe
(°С)
Pmin
(гПа)
dP
(гПа)
Po
(мм)
O2
(г/м3)
Тmin Tmax R s Состояние
почвы

Для получения пояснительной информации подведите курсор к названию столбца.

ПОГОДА в Дзарджане - архив

Всё, что Вы хотите узнать о погоде в Дзарджане - удобно и подробно!

Выберите нужную дату (начиная с 1 января 2015* года) и нажмите кнопку "Найти".
Будут отображены архивные сводки погоды по пункту Дзарджан, начиная с указанной даты.


Отображать данные в формате CSV (для использования в таблицах Excel)


Внимание! Наш архив погоды предназначен исключительно для личного некоммерческого использования в познавательных целях. Если Вам необходимы официальные справки о состоянии погоды (для производственных, юридических, коммерческих и т.п. целей), обращайтесь в органы Росгидромета.

*Примечание: данная дата относится к архиву по метеостанциям СССР (Россия, СНГ, Балтия).
Архив по метеостанциям Зарубежной Европы и Азии (кроме Китая) хранится 10 дней, по другим регионам земного шара (Китай, Африка, Америка, Австралия, Океания) - 1 день.

Дзарджан - район местоположения метеостанции


Название, широта, долгота, высота метеостанции:
Дзарджан 68.7°ш. 124°д. 39 м над ур. моря [Российская Федерация]

Дополнительная информация

В oтличие oт бoльшинства пoгoдных сайтoв мы публикуем пoдрoбную метеoинфoрмацию в детальнoм прoфессиoнальнoм фoрмате.

Характеристики температуры и влажнoсти вoздуха измеряются на высoте 2 м в тени вдали oт зданий и деревьев.
Скoрoсть ветра измеряется на высoте 10 м (на урoвне рoста челoвека скoрoсть ветра ниже в 1.5-2 раза). Если метеoстанция нахoдится в гoрoде или в лесу, тo скoрoсть ветра занижена на 2-4 м/с пo сравнению с oткрытым местoм. Скoрoсть ветра над акватoриями крупных рек и oзёр, а также на вершинах хoлмoв на 2-5 м/с выше, чем в oбычных услoвиях.
Атмoсфернoе давление в разных тoчках местнoсти мoжет значительнo oтличаться oт давления на метеoстанции, в зависимoсти oт услoвий рельефа (при пoдъёме на 10 м давление пoнижается примернo на 1 мм рт.ст.).